• In Hungary
  • List of Countries
  • For 7 days
  • Water Temperature
  • Satellite Maps
  • Weather Map
  • News
  • Weather Widgets
  • user-avatar
    Login

    Hourly Weather Lukoshkino

    Today, 20 September, Thursday

    Time Temperature Precipitation Wind Pressure Humidity
    00:00 +15°C° 0 mm 4 mps 741 mmHg 89%
    01:00 +14°C° 0 mm 4 mps 741 mmHg 91%
    02:00 +14°C° 0 mm 4 mps 741 mmHg 93%
    03:00 +14°C° 0 mm 4 mps 741 mmHg 95%
    04:00 +14°C° 0 mm 4 mps 741 mmHg 95%
    05:00 +14°C° 0 mm 4 mps 741 mmHg 95%
    06:00 +14°C° 0 mm 4 mps 741 mmHg 96%
    07:00 +15°C° 0 mm 4 mps 741 mmHg 92%
    08:00 +17°C° 0 mm 4 mps 741 mmHg 88%
    09:00 +17°C° 0 mm 5 mps 741 mmHg 84%
    10:00 +20°C° 0 mm 5 mps 741 mmHg 78%
    11:00 +21°C° 0 mm 5 mps 741 mmHg 72%
    12:00 +23°C° 0 mm 6 mps 741 mmHg 66%
    13:00 +23°C° 0 mm 6 mps 741 mmHg 63%
    14:00 +23°C° 0 mm 6 mps 742 mmHg 60%
    15:00 +24°C° 0 mm 6 mps 742 mmHg 57%
    16:00 +22°C° 0 mm 5 mps 742 mmHg 62%
    17:00 +21°C° 0 mm 4 mps 742 mmHg 66%
    18:00 +20°C° 0 mm 3 mps 742 mmHg 71%
    19:00 +19°C° 0 mm 3 mps 742 mmHg 75%
    20:00 +17°C° 0 mm 3 mps 743 mmHg 79%
    21:00 +16°C° 0 mm 3 mps 743 mmHg 83%
    22:00 +16°C° 0 mm 2 mps 743 mmHg 85%
    23:00 +15°C° 0 mm 2 mps 743 mmHg 87%

    Tomorrow, 21 September, Friday

    Time Temperature Precipitation Wind Pressure Humidity
    00:00 +15°C° 0 mm 2 mps 743 mmHg 89%
    01:00 +14°C° 0 mm 2 mps 744 mmHg 90%
    02:00 +14°C° 0 mm 2 mps 744 mmHg 90%
    03:00 +14°C° 0 mm 2 mps 744 mmHg 91%
    04:00 +14°C° 0 mm 2 mps 744 mmHg 92%
    05:00 +13°C° 0 mm 2 mps 744 mmHg 92%
    06:00 +13°C° 0 mm 2 mps 745 mmHg 92%
    07:00 +15°C° 0 mm 2 mps 745 mmHg 87%
    08:00 +16°C° 0 mm 2 mps 745 mmHg 81%
    09:00 +17°C° 0 mm 2 mps 745 mmHg 76%
    10:00 +19°C° 0 mm 2 mps 746 mmHg 70%
    11:00 +20°C° 0 mm 2 mps 746 mmHg 64%
    12:00 +23°C° 0 mm 2 mps 746 mmHg 58%
    13:00 +24°C° 0 mm 2 mps 746 mmHg 56%
    14:00 +24°C° 0 mm 2 mps 746 mmHg 54%
    15:00 +25°C° 0 mm 2 mps 746 mmHg 51%
    16:00 +23°C° 0 mm 2 mps 746 mmHg 56%
    17:00 +22°C° 0 mm 1 mps 745 mmHg 61%
    18:00 +21°C° 0 mm 1 mps 745 mmHg 67%
    19:00 +20°C° 0 mm 1 mps 745 mmHg 69%
    20:00 +19°C° 0 mm 1 mps 745 mmHg 72%
    21:00 +18°C° 0 mm 1 mps 745 mmHg 75%
    22:00 +17°C° 0 mm 2 mps 745 mmHg 77%
    23:00 +16°C° 0 mm 2 mps 745 mmHg 79%

    Day after tomorrow, 22 September, Saturday

    Time Temperature Precipitation Wind Pressure Humidity
    00:00 +16°C° 0 mm 2 mps 745 mmHg 80%
    01:00 +15°C° 0 mm 2 mps 745 mmHg 82%
    02:00 +15°C° 0 mm 2 mps 745 mmHg 84%
    03:00 +15°C° 0 mm 2 mps 745 mmHg 85%
    04:00 +13°C° 0 mm 3 mps 745 mmHg 86%
    05:00 +13°C° 0 mm 3 mps 745 mmHg 87%
    06:00 +13°C° 0 mm 3 mps 744 mmHg 88%
    07:00 +14°C° 0 mm 3 mps 744 mmHg 82%
    08:00 +17°C° 0 mm 4 mps 744 mmHg 76%
    09:00 +18°C° 0 mm 4 mps 744 mmHg 71%
    10:00 +20°C° 0 mm 4 mps 744 mmHg 66%
    11:00 +21°C° 0 mm 5 mps 744 mmHg 61%
    12:00 +23°C° 0 mm 5 mps 743 mmHg 56%
    13:00 +25°C° 0 mm 5 mps 743 mmHg 55%
    14:00 +24°C° 0 mm 6 mps 743 mmHg 54%
    15:00 +24°C° 0 mm 6 mps 742 mmHg 53%
    16:00 +23°C° 0 mm 5 mps 742 mmHg 58%
    17:00 +22°C° 0 mm 5 mps 741 mmHg 63%
    18:00 +21°C° 0 mm 4 mps 741 mmHg 68%
    19:00 +20°C° 0 mm 4 mps 740 mmHg 70%
    20:00 +19°C° 0 mm 4 mps 740 mmHg 72%
    21:00 +19°C° 0 mm 4 mps 740 mmHg 74%
    22:00 +17°C° 0 mm 5 mps 739 mmHg 73%
    23:00 +17°C° 0 mm 5 mps 739 mmHg 72%

    23 September, Sunday

    Time Temperature Precipitation Wind Pressure Humidity
    00:00 +17°C° 0 mm 5 mps 739 mmHg 72%
    01:00 +17°C° 0 mm 5 mps 738 mmHg 72%
    02:00 +16°C° 0 mm 5 mps 738 mmHg 73%
    03:00 +17°C° 0 mm 4 mps 738 mmHg 73%
    04:00 +15°C° 0.1 mm 4 mps 738 mmHg 76%
    05:00 +14°C° 0.1 mm 3 mps 737 mmHg 80%
    06:00 +13°C° 0.1 mm 3 mps 737 mmHg 83%
    07:00 +13°C° 0.3 mm 3 mps 736 mmHg 84%
    08:00 +13°C° 0.3 mm 3 mps 736 mmHg 84%
    09:00 +13°C° 0.3 mm 4 mps 736 mmHg 85%
    10:00 +12°C° 1.1 mm 4 mps 736 mmHg 86%
    11:00 +10°C° 1.1 mm 5 mps 735 mmHg 87%
    12:00 +9°C° 1.1 mm 5 mps 735 mmHg 88%
    13:00 +8°C° 1.3 mm 5 mps 735 mmHg 88%
    14:00 +8°C° 1.3 mm 5 mps 735 mmHg 88%
    15:00 +7°C° 1.3 mm 6 mps 736 mmHg 88%
    16:00 +8°C° 0.2 mm 5 mps 736 mmHg 88%
    17:00 +8°C° 0.2 mm 4 mps 736 mmHg 87%
    18:00 +10°C° 0.2 mm 4 mps 736 mmHg 87%
    19:00 +8°C° 0 mm 4 mps 737 mmHg 88%
    20:00 +8°C° 0 mm 4 mps 737 mmHg 90%
    21:00 +8°C° 0 mm 3 mps 737 mmHg 92%
    22:00 +8°C° 0 mm 3 mps 737 mmHg 92%
    23:00 +7°C° 0 mm 4 mps 737 mmHg 92%

    24 September, Monday

    Time Temperature Precipitation Wind Pressure Humidity
    00:00 +7°C° 0 mm 4 mps 737 mmHg 91%
    01:00 +7°C° 0 mm 4 mps 737 mmHg 92%
    02:00 +6°C° 0 mm 4 mps 737 mmHg 92%
    03:00 +6°C° 0 mm 4 mps 737 mmHg 93%
    04:00 +6°C° 0 mm 4 mps 737 mmHg 94%
    05:00 +5°C° 0 mm 4 mps 738 mmHg 94%
    06:00 +5°C° 0 mm 4 mps 738 mmHg 95%
    07:00 +6°C° 0 mm 4 mps 738 mmHg 91%
    08:00 +7°C° 0 mm 4 mps 738 mmHg 87%
    09:00 +8°C° 0 mm 4 mps 738 mmHg 83%
    10:00 +9°C° 0 mm 5 mps 738 mmHg 77%
    11:00 +12°C° 0 mm 5 mps 738 mmHg 71%
    12:00 +13°C° 0 mm 5 mps 739 mmHg 64%
    13:00 +13°C° 0 mm 5 mps 738 mmHg 61%
    14:00 +14°C° 0 mm 5 mps 738 mmHg 59%
    15:00 +14°C° 0 mm 5 mps 738 mmHg 56%
    16:00 +13°C° 0 mm 4 mps 737 mmHg 59%
    17:00 +12°C° 0 mm 4 mps 736 mmHg 63%
    18:00 +12°C° 0 mm 4 mps 736 mmHg 67%
    19:00 +11°C° 0.6 mm 4 mps 735 mmHg 70%
    20:00 +10°C° 0.6 mm 5 mps 735 mmHg 74%
    21:00 +9°C° 0.6 mm 5 mps 735 mmHg 77%
    22:00 +9°C° 1.6 mm 6 mps 734 mmHg 79%
    23:00 +9°C° 1.6 mm 7 mps 733 mmHg 80%

    25 September, Tuesday

    Time Temperature Precipitation Wind Pressure Humidity
    00:00 +9°C° 1.6 mm 8 mps 732 mmHg 82%
    01:00 +9°C° 1.3 mm 8 mps 731 mmHg 80%
    02:00 +9°C° 1.3 mm 8 mps 730 mmHg 79%
    03:00 +9°C° 1.3 mm 8 mps 729 mmHg 77%
    04:00 +8°C° 1.5 mm 9 mps 728 mmHg 80%
    05:00 +8°C° 1.5 mm 9 mps 727 mmHg 82%
    06:00 +8°C° 1.5 mm 9 mps 727 mmHg 85%
    07:00 +8°C° 0.1 mm 9 mps 727 mmHg 84%
    08:00 +9°C° 0.1 mm 8 mps 726 mmHg 83%
    09:00 +10°C° 0.1 mm 8 mps 726 mmHg 82%
    10:00 +10°C° 0.1 mm 8 mps 726 mmHg 80%
    11:00 +10°C° 0.1 mm 8 mps 726 mmHg 78%
    12:00 +10°C° 0.1 mm 8 mps 726 mmHg 76%
    13:00 +10°C° 0.2 mm 8 mps 726 mmHg 76%
    14:00 +10°C° 0.2 mm 8 mps 726 mmHg 76%
    15:00 +10°C° 0.2 mm 8 mps 726 mmHg 76%
    16:00 +9°C° 0.1 mm 8 mps 726 mmHg 78%
    17:00 +9°C° 0.1 mm 8 mps 727 mmHg 80%
    18:00 +9°C° 0.1 mm 8 mps 727 mmHg 82%
    19:00 +9°C° 0.1 mm 7 mps 727 mmHg 82%
    20:00 +8°C° 0.1 mm 7 mps 728 mmHg 82%
    21:00 +8°C° 0.1 mm 7 mps 728 mmHg 81%
    22:00 +8°C° 0 mm 7 mps 729 mmHg 81%
    23:00 +6°C° 0 mm 8 mps 729 mmHg 81%
    Show more